| time (UTC) | temp F | wind direction | speed knots | gust knots | rain 1hr in | rain 24hr in | rain mn in | humidity % | barometer mb |
| 20260504100105 | 43 | 305 | 0.0 | 0.0 | 0.00 | 0.00 | 0.00 | 82 | 1013.9 |
| 20260504090118 | 43 | 305 | 0.0 | 0.0 | 0.00 | 0.00 | 0.00 | 79 | 1014.3 |
| 20260504081554 | 42 | 305 | 0.0 | 0.0 | 0.00 | 0.00 | 0.00 | 75 | 1014.5 |
| 20260504044546 | 41 | 305 | 0.0 | 0.0 | 0.00 | 0.00 | 0.00 | 77 | 1015.1 |
| 20260504043035 | 40 | 305 | 0.0 | 0.0 | 0.00 | 0.00 | 0.00 | 78 | 1015.1 |
| 20260504041531 | 40 | 305 | 0.9 | 0.0 | 0.00 | 0.00 | 0.00 | 77 | 1015.1 |
| 20260504040031 | 41 | 305 | 0.0 | 0.0 | 0.00 | 0.00 | 0.00 | 75 | 1015.0 |
| 20260504034538 | 41 | 305 | 0.9 | 0.0 | 0.00 | 0.00 | 0.00 | 76 | 1015.0 |
| 20260504033037 | 41 | 305 | 0.0 | 0.0 | 0.00 | 0.00 | 0.00 | 75 | 1014.6 |
| 20260504031528 | 41 | 306 | 0.0 | 0.0 | 0.00 | 0.00 | 0.00 | 73 | 1014.7 |
| 20260504030027 | 43 | 305 | 0.0 | 0.0 | 0.00 | 0.00 | 0.00 | 70 | 1014.6 |
| 20260504024559 | 42 | 305 | 0.0 | 0.0 | 0.00 | 0.00 | 0.00 | 72 | 1014.6 |
| 20260504023053 | 43 | 305 | 0.0 | 0.0 | 0.00 | 0.00 | 0.00 | 69 | 1014.6 |
| 20260504021553 | 44 | 305 | 0.0 | 0.0 | 0.00 | 0.00 | 0.00 | 65 | 1014.5 |
| 20260504020051 | 44 | 306 | 0.0 | 0.0 | 0.00 | 0.00 | 0.00 | 67 | 1014.6 |
| 20260504014552 | 46 | 305 | 0.0 | 0.0 | 0.00 | 0.00 | 0.00 | 62 | 1014.5 |
| 20260504013051 | 47 | 305 | 0.0 | 0.0 | 0.00 | 0.00 | 0.00 | 60 | 1014.5 |
| 20260504011551 | 48 | 305 | 0.0 | 0.0 | 0.00 | 0.00 | 0.00 | 59 | 1014.1 |
| 20260504010056 | 51 | 305 | 0.0 | 0.0 | 0.00 | 0.00 | 0.00 | 50 | 1014.1 |
| 20260504004549 | 50 | 305 | 0.0 | 0.0 | 0.00 | 0.00 | 0.00 | 53 | 1014.1 |
| 20260504003051 | 52 | 305 | 0.0 | 0.0 | 0.00 | 0.00 | 0.00 | 46 | 1013.9 |
| 20260504001607 | 53 | 305 | 0.0 | 0.0 | 0.00 | 0.00 | 0.00 | 45 | 1013.6 |
| 20260504000049 | 54 | 305 | 0.0 | 0.0 | 0.00 | 0.00 | 0.00 | 43 | 1013.5 |
| 20260503234548 | 56 | 307 | 0.9 | 0.0 | 0.00 | 0.00 | 0.00 | 38 | 1013.5 |
| 20260503233046 | 57 | 301 | 2.6 | 0.0 | 0.00 | 0.00 | 0.00 | 37 | 1013.4 |
| 20260503231547 | 58 | 314 | 5.2 | 0.0 | 0.00 | 0.00 | 0.00 | 35 | 1013.2 |
| 20260503230046 | 58 | 0 | 4.3 | 0.0 | 0.00 | 0.00 | 0.00 | 36 | 1013.1 |
| 20260503224546 | 59 | 279 | 7.0 | 0.0 | 0.00 | 0.00 | 0.00 | 32 | 1013.2 |
| 20260503223046 | 60 | 294 | 7.0 | 0.0 | 0.00 | 0.00 | 0.00 | 32 | 1013.3 |
| 20260503221545 | 60 | 296 | 7.0 | 0.0 | 0.00 | 0.00 | 0.00 | 35 | 1013.2 |
| 20260503220103 | 60 | 309 | 7.0 | 0.0 | 0.00 | 0.00 | 0.00 | 34 | 1013.2 |
| 20260503214546 | 60 | 327 | 9.6 | 0.0 | 0.00 | 0.00 | 0.00 | 32 | 1013.4 |
| 20260503213039 | 60 | 301 | 8.7 | 0.0 | 0.00 | 0.00 | 0.00 | 34 | 1013.2 |
| 20260503211542 | 59 | 290 | 7.8 | 0.0 | 0.00 | 0.00 | 0.00 | 32 | 1013.1 |
| 20260503210034 | 60 | 319 | 9.6 | 0.0 | 0.00 | 0.00 | 0.00 | 32 | 1013.4 |
| 20260503204533 | 59 | 308 | 8.7 | 0.0 | 0.00 | 0.00 | 0.00 | 33 | 1013.2 |
| 20260503203134 | 59 | 281 | 7.8 | 0.0 | 0.00 | 0.00 | 0.00 | 34 | 1013.4 |
| 20260503201535 | 59 | 334 | 7.0 | 0.0 | 0.00 | 0.00 | 0.00 | 33 | 1013.4 |
| 20260503200036 | 59 | 349 | 8.7 | 0.0 | 0.00 | 0.00 | 0.00 | 34 | 1013.5 |
| 20260503194534 | 59 | 302 | 7.8 | 0.0 | 0.00 | 0.00 | 0.00 | 35 | 1013.9 |
| 20260503193035 | 58 | 320 | 8.7 | 0.0 | 0.00 | 0.00 | 0.00 | 36 | 1014.0 |
| 20260503191535 | 58 | 272 | 7.0 | 0.0 | 0.00 | 0.00 | 0.00 | 38 | 1014.1 |
| 20260503190031 | 57 | 310 | 7.0 | 0.0 | 0.00 | 0.00 | 0.00 | 37 | 1014.2 |
| 20260503184529 | 57 | 317 | 6.1 | 0.0 | 0.00 | 0.00 | 0.00 | 45 | 1014.5 |
| 20260503183035 | 55 | 270 | 9.6 | 0.0 | 0.00 | 0.00 | 0.00 | 38 | 1014.7 |
| 20260503181542 | 56 | 287 | 7.8 | 0.0 | 0.00 | 0.00 | 0.00 | 38 | 1014.8 |
| 20260503180025 | 54 | 296 | 6.1 | 0.0 | 0.00 | 0.00 | 0.00 | 42 | 1015.1 |
| 20260503174524 | 55 | 332 | 9.6 | 0.0 | 0.00 | 0.00 | 0.00 | 41 | 1014.8 |
| 20260503173040 | 55 | 336 | 9.6 | 0.0 | 0.00 | 0.00 | 0.00 | 40 | 1015.1 |
| 20260503171521 | 54 | 331 | 7.8 | 0.0 | 0.00 | 0.00 | 0.00 | 42 | 1015.3 |